Time,TemperatureF,DewpointF,PressureIn,WindDirection,WindDirectionDegrees,WindSpeedMPH,WindSpeedGustMPH,Humidity,HourlyPrecipIn,Conditions,Clouds,dailyrainin,SolarRadiationWatts/m^2,SoftwareType,DateUTC
2015-05-30 00:03:00,70.1,0.0,30.00,SSW,192,0.0,7.0,0,0.00,,,0.00,0,HR-IXPWINDi_r2_v1.2.,2015-05-30 04:03:00,
2015-05-30 00:08:00,70.3,0.0,30.00,SSW,194,3.0,8.0,0,0.00,,,0.00,0,HR-IXPWINDi_r2_v1.2.,2015-05-30 04:08:00,
2015-05-30 00:13:00,70.5,0.0,30.00,SSW,201,3.0,8.0,0,0.00,,,0.00,0,HR-IXPWINDi_r2_v1.2.,2015-05-30 04:13:00,
2015-05-30 00:18:00,70.6,0.0,30.00,SSW,199,6.0,9.0,0,0.00,,,0.00,0,HR-IXPWINDi_r2_v1.2.,2015-05-30 04:18:00,
2015-05-30 00:23:00,70.6,0.0,30.01,SSW,193,2.0,9.0,0,0.00,,,0.00,0,HR-IXPWINDi_r2_v1.2.,2015-05-30 04:23:00,
2015-05-30 00:28:00,70.6,0.0,30.01,South,190,0.0,7.0,0,0.00,,,0.00,0,HR-IXPWINDi_r2_v1.2.,2015-05-30 04:28:00,
2015-05-30 00:33:00,70.5,0.0,30.01,South,189,6.0,11.0,0,0.00,,,0.00,0,HR-IXPWINDi_r2_v1.2.,2015-05-30 04:33:00,
2015-05-30 00:38:00,70.6,0.0,30.01,South,182,8.0,11.0,0,0.00,,,0.00,0,HR-IXPWINDi_r2_v1.2.,2015-05-30 04:38:00,
2015-05-30 00:43:00,70.5,0.0,30.00,SSW,193,4.0,9.0,0,0.00,,,0.00,0,HR-IXPWINDi_r2_v1.2.,2015-05-30 04:43:00,
2015-05-30 00:48:00,70.5,0.0,30.00,SSW,194,0.0,9.0,0,0.00,,,0.00,0,HR-IXPWINDi_r2_v1.2.,2015-05-30 04:48:00,
2015-05-30 00:53:00,70.5,0.0,30.00,South,188,1.0,8.0,0,0.00,,,0.00,0,HR-IXPWINDi_r2_v1.2.,2015-05-30 04:53:00,
2015-05-30 00:58:00,70.5,0.0,30.00,South,190,4.0,11.0,0,0.00,,,0.00,0,HR-IXPWINDi_r2_v1.2.,2015-05-30 04:58:00,
2015-05-30 01:03:00,70.6,0.0,30.00,SSW,198,7.0,11.0,0,0.00,,,0.00,0,HR-IXPWINDi_r2_v1.2.,2015-05-30 05:03:00,
2015-05-30 01:08:00,70.7,0.0,30.00,South,181,0.0,10.0,0,0.00,,,0.00,0,HR-IXPWINDi_r2_v1.2.,2015-05-30 05:08:00,
2015-05-30 01:13:00,70.7,0.0,30.00,South,180,12.0,12.0,0,0.00,,,0.00,0,HR-IXPWINDi_r2_v1.2.,2015-05-30 05:13:00,
2015-05-30 01:18:00,70.7,0.0,30.00,South,189,10.0,12.0,0,0.00,,,0.00,0,HR-IXPWINDi_r2_v1.2.,2015-05-30 05:18:00,
2015-05-30 01:23:00,70.7,0.0,30.00,SSW,192,0.0,12.0,0,0.00,,,0.00,0,HR-IXPWINDi_r2_v1.2.,2015-05-30 05:23:00,
2015-05-30 01:28:00,70.6,0.0,30.00,South,182,1.0,10.0,0,0.00,,,0.00,0,HR-IXPWINDi_r2_v1.2.,2015-05-30 05:28:00,
2015-05-30 01:33:00,70.6,0.0,30.00,SSW,194,7.0,10.0,0,0.00,,,0.00,0,HR-IXPWINDi_r2_v1.2.,2015-05-30 05:33:00,
2015-05-30 01:38:00,70.7,0.0,30.00,SSW,202,0.0,10.0,0,0.00,,,0.00,0,HR-IXPWINDi_r2_v1.2.,2015-05-30 05:38:00,
2015-05-30 01:43:00,70.7,0.0,30.00,SSW,193,7.0,9.0,0,0.00,,,0.00,0,HR-IXPWINDi_r2_v1.2.,2015-05-30 05:43:00,
2015-05-30 01:48:00,70.7,0.0,30.00,South,187,3.0,10.0,0,0.00,,,0.00,0,HR-IXPWINDi_r2_v1.2.,2015-05-30 05:48:00,
2015-05-30 01:53:00,70.6,0.0,30.00,South,188,0.0,10.0,0,0.00,,,0.00,0,HR-IXPWINDi_r2_v1.2.,2015-05-30 05:53:00,
2015-05-30 01:58:00,70.6,0.0,29.99,South,191,7.0,10.0,0,0.00,,,0.00,0,HR-IXPWINDi_r2_v1.2.,2015-05-30 05:58:00,
2015-05-30 02:03:00,70.6,0.0,30.00,South,189,5.0,9.0,0,0.00,,,0.00,0,HR-IXPWINDi_r2_v1.2.,2015-05-30 06:03:00,
2015-05-30 02:08:00,70.7,0.0,30.00,South,186,1.0,8.0,0,0.00,,,0.00,0,HR-IXPWINDi_r2_v1.2.,2015-05-30 06:08:00,
2015-05-30 02:13:00,70.7,0.0,30.00,South,190,5.0,8.0,0,0.00,,,0.00,0,HR-IXPWINDi_r2_v1.2.,2015-05-30 06:13:00,
2015-05-30 02:18:00,70.7,0.0,30.00,South,188,0.0,8.0,0,0.00,,,0.00,0,HR-IXPWINDi_r2_v1.2.,2015-05-30 06:18:00,
2015-05-30 02:23:00,70.7,0.0,29.99,South,182,0.0,7.0,0,0.00,,,0.00,0,HR-IXPWINDi_r2_v1.2.,2015-05-30 06:23:00,
2015-05-30 02:28:00,70.7,0.0,29.99,SSW,192,0.0,7.0,0,0.00,,,0.00,0,HR-IXPWINDi_r2_v1.2.,2015-05-30 06:28:00,
2015-05-30 02:33:00,70.7,0.0,29.99,SSW,194,1.0,7.0,0,0.00,,,0.00,0,HR-IXPWINDi_r2_v1.2.,2015-05-30 06:33:00,
2015-05-30 02:38:00,70.7,0.0,29.99,SSW,193,5.0,8.0,0,0.00,,,0.00,0,HR-IXPWINDi_r2_v1.2.,2015-05-30 06:38:00,
2015-05-30 02:43:00,70.7,0.0,29.99,SSW,193,5.0,8.0,0,0.00,,,0.00,0,HR-IXPWINDi_r2_v1.2.,2015-05-30 06:43:00,
2015-05-30 02:48:00,70.8,0.0,29.99,SSW,194,0.0,9.0,0,0.00,,,0.00,0,HR-IXPWINDi_r2_v1.2.,2015-05-30 06:48:00,
2015-05-30 02:53:00,70.7,0.0,29.99,South,191,2.0,9.0,0,0.00,,,0.00,0,HR-IXPWINDi_r2_v1.2.,2015-05-30 06:53:00,
2015-05-30 02:58:00,70.7,0.0,29.99,SSW,194,0.0,9.0,0,0.00,,,0.00,0,HR-IXPWINDi_r2_v1.2.,2015-05-30 06:58:00,
2015-05-30 03:03:00,70.6,0.0,29.99,South,190,0.0,9.0,0,0.00,,,0.00,0,HR-IXPWINDi_r2_v1.2.,2015-05-30 07:03:00,
2015-05-30 03:08:00,70.4,0.0,29.99,SSW,192,7.0,8.0,0,0.00,,,0.00,0,HR-IXPWINDi_r2_v1.2.,2015-05-30 07:08:00,
2015-05-30 03:13:00,70.4,0.0,29.99,SSW,201,4.0,8.0,0,0.00,,,0.00,0,HR-IXPWINDi_r2_v1.2.,2015-05-30 07:13:00,
2015-05-30 03:18:00,70.4,0.0,29.98,SSW,193,2.0,8.0,0,0.00,,,0.00,0,HR-IXPWINDi_r2_v1.2.,2015-05-30 07:18:00,
2015-05-30 03:23:00,70.4,0.0,29.98,SSW,192,8.0,10.0,0,0.00,,,0.00,0,HR-IXPWINDi_r2_v1.2.,2015-05-30 07:23:00,
2015-05-30 03:28:00,70.4,0.0,29.98,SSW,207,0.0,10.0,0,0.00,,,0.00,0,HR-IXPWINDi_r2_v1.2.,2015-05-30 07:28:00,
2015-05-30 03:33:00,70.4,0.0,29.98,SSW,200,5.0,10.0,0,0.00,,,0.00,0,HR-IXPWINDi_r2_v1.2.,2015-05-30 07:33:00,
2015-05-30 03:38:00,70.4,0.0,29.97,SSW,200,7.0,11.0,0,0.00,,,0.00,0,HR-IXPWINDi_r2_v1.2.,2015-05-30 07:38:00,
2015-05-30 03:43:00,70.5,0.0,29.98,SSW,199,5.0,11.0,0,0.00,,,0.00,0,HR-IXPWINDi_r2_v1.2.,2015-05-30 07:43:00,
2015-05-30 03:48:00,70.4,0.0,29.98,SSW,205,0.0,11.0,0,0.00,,,0.00,0,HR-IXPWINDi_r2_v1.2.,2015-05-30 07:48:00,
2015-05-30 03:53:00,70.3,0.0,29.98,SSW,209,0.0,9.0,0,0.00,,,0.00,0,HR-IXPWINDi_r2_v1.2.,2015-05-30 07:53:00,
2015-05-30 03:58:00,70.3,0.0,29.98,SSW,200,0.0,10.0,0,0.00,,,0.00,0,HR-IXPWINDi_r2_v1.2.,2015-05-30 07:58:00,
2015-05-30 04:03:00,70.2,0.0,29.98,SW,221,9.0,12.0,0,0.00,,,0.00,0,HR-IXPWINDi_r2_v1.2.,2015-05-30 08:03:00,
2015-05-30 04:08:00,70.1,0.0,29.98,SSW,200,8.0,12.0,0,0.00,,,0.00,0,HR-IXPWINDi_r2_v1.2.,2015-05-30 08:08:00,
2015-05-30 04:13:00,70.1,0.0,29.98,SW,215,7.0,12.0,0,0.00,,,0.00,0,HR-IXPWINDi_r2_v1.2.,2015-05-30 08:13:00,
2015-05-30 04:18:00,70.0,0.0,29.98,SSW,203,6.0,10.0,0,0.00,,,0.00,0,HR-IXPWINDi_r2_v1.2.,2015-05-30 08:18:00,
2015-05-30 04:23:00,69.9,0.0,29.98,SSW,205,6.0,11.0,0,0.00,,,0.00,0,HR-IXPWINDi_r2_v1.2.,2015-05-30 08:23:00,
2015-05-30 04:28:00,69.9,0.0,29.98,SSW,207,6.0,11.0,0,0.00,,,0.00,0,HR-IXPWINDi_r2_v1.2.,2015-05-30 08:28:00,
2015-05-30 04:33:00,69.8,0.0,29.98,SSW,205,0.0,11.0,0,0.00,,,0.00,0,HR-IXPWINDi_r2_v1.2.,2015-05-30 08:33:00,
2015-05-30 04:38:00,69.7,0.0,29.98,SSW,197,7.0,8.0,0,0.00,,,0.00,0,HR-IXPWINDi_r2_v1.2.,2015-05-30 08:38:00,
2015-05-30 04:43:00,69.6,0.0,29.98,SSW,204,0.0,7.0,0,0.00,,,0.00,0,HR-IXPWINDi_r2_v1.2.,2015-05-30 08:43:00,
2015-05-30 04:48:00,69.5,0.0,29.98,SSW,205,6.0,8.0,0,0.00,,,0.00,0,HR-IXPWINDi_r2_v1.2.,2015-05-30 08:48:00,
2015-05-30 04:53:00,69.5,0.0,29.99,SSW,207,6.0,8.0,0,0.00,,,0.00,0,HR-IXPWINDi_r2_v1.2.,2015-05-30 08:53:00,
2015-05-30 04:58:00,69.4,0.0,29.99,SSW,208,0.0,9.0,0,0.00,,,0.00,0,HR-IXPWINDi_r2_v1.2.,2015-05-30 08:58:00,
2015-05-30 05:03:00,69.2,0.0,29.98,SSW,210,3.0,9.0,0,0.00,,,0.00,0,HR-IXPWINDi_r2_v1.2.,2015-05-30 09:03:00,
2015-05-30 05:08:00,69.1,0.0,29.98,SSW,213,0.0,7.0,0,0.00,,,0.00,0,HR-IXPWINDi_r2_v1.2.,2015-05-30 09:08:00,
2015-05-30 05:13:00,69.0,0.0,29.99,SSW,213,0.0,6.0,0,0.00,,,0.00,0,HR-IXPWINDi_r2_v1.2.,2015-05-30 09:13:00,
2015-05-30 05:18:00,69.0,0.0,29.99,SSW,212,0.0,2.0,0,0.00,,,0.00,0,HR-IXPWINDi_r2_v1.2.,2015-05-30 09:18:00,
2015-05-30 05:23:00,68.9,0.0,29.99,SSW,209,0.0,5.0,0,0.00,,,0.00,0,HR-IXPWINDi_r2_v1.2.,2015-05-30 09:23:00,
2015-05-30 05:28:00,68.8,0.0,29.98,SSW,198,6.0,7.0,0,0.00,,,0.00,0,HR-IXPWINDi_r2_v1.2.,2015-05-30 09:28:00,
2015-05-30 05:33:00,68.8,0.0,29.99,SSW,199,5.0,7.0,0,0.00,,,0.00,0,HR-IXPWINDi_r2_v1.2.,2015-05-30 09:33:00,
2015-05-30 05:38:00,68.7,0.0,29.99,SSW,212,5.0,7.0,0,0.00,,,0.00,0,HR-IXPWINDi_r2_v1.2.,2015-05-30 09:38:00,
2015-05-30 05:43:00,68.7,0.0,29.99,SSW,209,5.0,7.0,0,0.00,,,0.00,0,HR-IXPWINDi_r2_v1.2.,2015-05-30 09:43:00,
2015-05-30 05:48:00,68.7,0.0,29.99,SSW,207,7.0,7.0,0,0.00,,,0.00,0,HR-IXPWINDi_r2_v1.2.,2015-05-30 09:48:00,
2015-05-30 05:53:00,68.7,0.0,29.99,SSW,202,8.0,8.0,0,0.00,,,0.00,0,HR-IXPWINDi_r2_v1.2.,2015-05-30 09:53:00,
2015-05-30 05:58:00,68.8,0.0,29.99,SSW,205,6.0,8.0,0,0.00,,,0.00,0,HR-IXPWINDi_r2_v1.2.,2015-05-30 09:58:00,
2015-05-30 06:03:00,68.8,0.0,30.00,SSW,202,0.0,8.0,0,0.00,,,0.00,0,HR-IXPWINDi_r2_v1.2.,2015-05-30 10:03:00,
2015-05-30 06:08:00,68.8,0.0,29.99,SSW,202,0.0,7.0,0,0.00,,,0.00,0,HR-IXPWINDi_r2_v1.2.,2015-05-30 10:08:00,
2015-05-30 06:13:00,68.6,0.0,29.99,SSW,202,0.0,6.0,0,0.00,,,0.00,5,HR-IXPWINDi_r2_v1.2.,2015-05-30 10:13:00,
2015-05-30 06:18:00,68.5,0.0,30.00,SSW,202,0.0,0.0,0,0.00,,,0.00,5,HR-IXPWINDi_r2_v1.2.,2015-05-30 10:18:00,
2015-05-30 06:23:00,68.4,0.0,30.00,SSW,202,0.0,0.0,0,0.00,,,0.00,7,HR-IXPWINDi_r2_v1.2.,2015-05-30 10:23:00,
2015-05-30 06:28:00,68.4,0.0,30.00,SSW,202,0.0,5.0,0,0.00,,,0.00,9,HR-IXPWINDi_r2_v1.2.,2015-05-30 10:28:00,
2015-05-30 06:33:00,68.3,0.0,30.00,SSW,202,0.0,5.0,0,0.00,,,0.00,14,HR-IXPWINDi_r2_v1.2.,2015-05-30 10:33:00,
2015-05-30 06:38:00,68.3,0.0,30.00,SSW,202,0.0,0.0,0,0.00,,,0.00,21,HR-IXPWINDi_r2_v1.2.,2015-05-30 10:38:00,
2015-05-30 06:43:00,68.3,0.0,30.00,SSW,201,0.0,5.0,0,0.00,,,0.00,39,HR-IXPWINDi_r2_v1.2.,2015-05-30 10:43:00,
2015-05-30 06:48:00,68.5,0.0,30.00,SSW,201,5.0,7.0,0,0.00,,,0.00,46,HR-IXPWINDi_r2_v1.2.,2015-05-30 10:48:00,
2015-05-30 06:53:00,68.8,0.0,30.00,SSW,202,7.0,9.0,0,0.00,,,0.00,49,HR-IXPWINDi_r2_v1.2.,2015-05-30 10:53:00,
2015-05-30 06:58:00,69.2,0.0,30.00,SSW,197,7.0,9.0,0,0.00,,,0.00,46,HR-IXPWINDi_r2_v1.2.,2015-05-30 10:58:00,
2015-05-30 07:03:00,69.4,0.0,30.01,SSW,211,8.0,9.0,0,0.00,,,0.00,39,HR-IXPWINDi_r2_v1.2.,2015-05-30 11:03:00,
2015-05-30 07:08:00,69.4,0.0,30.01,SSW,198,7.0,10.0,0,0.00,,,0.00,35,HR-IXPWINDi_r2_v1.2.,2015-05-30 11:08:00,
2015-05-30 07:13:00,69.4,0.0,30.01,SSW,203,6.0,10.0,0,0.00,,,0.00,58,HR-IXPWINDi_r2_v1.2.,2015-05-30 11:13:00,
2015-05-30 07:18:00,69.5,0.0,30.01,SSW,194,6.0,9.0,0,0.00,,,0.00,76,HR-IXPWINDi_r2_v1.2.,2015-05-30 11:18:00,
2015-05-30 07:28:00,70.0,0.0,30.01,SSW,202,7.0,10.0,0,0.00,,,0.00,190,HR-IXPWINDi_r2_v1.2.,2015-05-30 11:28:00,
2015-05-30 07:33:00,70.3,0.0,30.01,SSW,195,6.0,10.0,0,0.00,,,0.00,156,HR-IXPWINDi_r2_v1.2.,2015-05-30 11:33:00,
2015-05-30 07:38:00,70.4,0.0,30.01,South,190,5.0,11.0,0,0.00,,,0.00,69,HR-IXPWINDi_r2_v1.2.,2015-05-30 11:38:00,
2015-05-30 07:43:00,70.4,0.0,30.01,SSW,212,7.0,11.0,0,0.00,,,0.00,60,HR-IXPWINDi_r2_v1.2.,2015-05-30 11:43:00,
2015-05-30 07:48:00,70.4,0.0,30.01,SSW,211,6.0,11.0,0,0.00,,,0.00,56,HR-IXPWINDi_r2_v1.2.,2015-05-30 11:48:00,
2015-05-30 07:53:00,70.3,0.0,30.01,SSW,200,5.0,10.0,0,0.00,,,0.00,47,HR-IXPWINDi_r2_v1.2.,2015-05-30 11:53:00,
2015-05-30 07:58:00,70.3,0.0,30.01,SSW,200,4.0,10.0,0,0.00,,,0.00,81,HR-IXPWINDi_r2_v1.2.,2015-05-30 11:58:00,
2015-05-30 08:03:00,70.5,0.0,30.01,South,188,7.0,8.0,0,0.00,,,0.00,229,HR-IXPWINDi_r2_v1.2.,2015-05-30 12:03:00,
2015-05-30 08:08:00,70.9,0.0,30.01,South,188,6.0,11.0,0,0.00,,,0.00,248,HR-IXPWINDi_r2_v1.2.,2015-05-30 12:08:00,
2015-05-30 08:13:00,71.4,0.0,30.01,SSW,212,8.0,11.0,0,0.00,,,0.00,278,HR-IXPWINDi_r2_v1.2.,2015-05-30 12:13:00,
2015-05-30 08:18:00,71.7,0.0,30.01,SW,215,8.0,11.0,0,0.00,,,0.00,146,HR-IXPWINDi_r2_v1.2.,2015-05-30 12:18:00,
2015-05-30 08:23:00,71.7,0.0,30.01,SSW,195,7.0,14.0,0,0.00,,,0.00,325,HR-IXPWINDi_r2_v1.2.,2015-05-30 12:23:00,
2015-05-30 08:28:00,71.9,0.0,30.01,South,188,13.0,15.0,0,0.00,,,0.00,272,HR-IXPWINDi_r2_v1.2.,2015-05-30 12:28:00,
2015-05-30 08:33:00,72.1,0.0,30.01,SSW,196,8.0,15.0,0,0.00,,,0.00,114,HR-IXPWINDi_r2_v1.2.,2015-05-30 12:33:00,
2015-05-30 08:38:00,71.8,0.0,30.02,SSW,205,0.0,13.0,0,0.00,,,0.00,93,HR-IXPWINDi_r2_v1.2.,2015-05-30 12:38:00,
2015-05-30 08:43:00,71.6,0.0,30.02,SSW,205,6.0,12.0,0,0.00,,,0.00,91,HR-IXPWINDi_r2_v1.2.,2015-05-30 12:43:00,
2015-05-30 08:48:00,71.7,0.0,30.02,SSW,200,8.0,12.0,0,0.00,,,0.00,353,HR-IXPWINDi_r2_v1.2.,2015-05-30 12:48:00,
2015-05-30 08:53:00,71.6,0.0,30.01,SW,215,10.0,13.0,0,0.00,,,0.00,105,HR-IXPWINDi_r2_v1.2.,2015-05-30 12:53:00,
2015-05-30 08:58:00,71.5,0.0,30.01,SSW,197,9.0,13.0,0,0.00,,,0.00,135,HR-IXPWINDi_r2_v1.2.,2015-05-30 12:58:00,
2015-05-30 09:03:00,71.5,0.0,30.01,SW,225,6.0,12.0,0,0.00,,,0.00,171,HR-IXPWINDi_r2_v1.2.,2015-05-30 13:03:00,
2015-05-30 09:08:00,72.1,0.0,30.01,SSW,197,8.0,12.0,0,0.00,,,0.00,455,HR-IXPWINDi_r2_v1.2.,2015-05-30 13:08:00,
2015-05-30 09:13:00,72.7,0.0,30.01,SSW,194,9.0,12.0,0,0.00,,,0.00,454,HR-IXPWINDi_r2_v1.2.,2015-05-30 13:13:00,
2015-05-30 09:18:00,72.9,0.0,30.01,SW,236,7.0,15.0,0,0.00,,,0.00,487,HR-IXPWINDi_r2_v1.2.,2015-05-30 13:18:00,
2015-05-30 09:23:00,73.6,0.0,30.01,SSW,193,7.0,15.0,0,0.00,,,0.00,557,HR-IXPWINDi_r2_v1.2.,2015-05-30 13:23:00,
2015-05-30 09:28:00,73.9,0.0,30.01,SW,228,5.0,14.0,0,0.00,,,0.00,311,HR-IXPWINDi_r2_v1.2.,2015-05-30 13:28:00,
2015-05-30 09:33:00,74.0,0.0,30.01,SSW,211,8.0,13.0,0,0.00,,,0.00,345,HR-IXPWINDi_r2_v1.2.,2015-05-30 13:33:00,
2015-05-30 09:38:00,74.0,0.0,30.01,SW,229,0.0,13.0,0,0.00,,,0.00,439,HR-IXPWINDi_r2_v1.2.,2015-05-30 13:38:00,
2015-05-30 09:43:00,74.6,0.0,30.01,SW,221,10.0,13.0,0,0.00,,,0.00,691,HR-IXPWINDi_r2_v1.2.,2015-05-30 13:43:00,
2015-05-30 09:48:00,74.7,0.0,30.01,SW,214,5.0,14.0,0,0.00,,,0.00,425,HR-IXPWINDi_r2_v1.2.,2015-05-30 13:48:00,
2015-05-30 09:53:00,74.3,0.0,30.02,SW,218,8.0,14.0,0,0.00,,,0.00,353,HR-IXPWINDi_r2_v1.2.,2015-05-30 13:53:00,
2015-05-30 09:58:00,74.3,0.0,30.01,SW,215,8.0,14.0,0,0.00,,,0.00,336,HR-IXPWINDi_r2_v1.2.,2015-05-30 13:58:00,
2015-05-30 10:03:00,74.2,0.0,30.02,West,259,10.0,16.0,0,0.00,,,0.00,343,HR-IXPWINDi_r2_v1.2.,2015-05-30 14:03:00,
2015-05-30 10:08:00,74.0,0.0,30.01,WSW,237,6.0,16.0,0,0.00,,,0.00,355,HR-IXPWINDi_r2_v1.2.,2015-05-30 14:08:00,
2015-05-30 10:13:00,74.1,0.0,30.01,SSW,195,7.0,12.0,0,0.00,,,0.00,323,HR-IXPWINDi_r2_v1.2.,2015-05-30 14:13:00,
2015-05-30 10:18:00,74.4,0.0,30.01,SW,218,8.0,11.0,0,0.00,,,0.00,332,HR-IXPWINDi_r2_v1.2.,2015-05-30 14:18:00,
2015-05-30 10:23:00,74.4,0.0,30.01,SSW,206,7.0,12.0,0,0.00,,,0.00,308,HR-IXPWINDi_r2_v1.2.,2015-05-30 14:23:00,
2015-05-30 10:28:00,74.3,0.0,30.01,SW,222,7.0,12.0,0,0.00,,,0.00,322,HR-IXPWINDi_r2_v1.2.,2015-05-30 14:28:00,
2015-05-30 10:33:00,74.3,0.0,30.01,SW,218,9.0,12.0,0,0.00,,,0.00,432,HR-IXPWINDi_r2_v1.2.,2015-05-30 14:33:00,
2015-05-30 10:38:00,74.7,0.0,30.01,SW,219,8.0,14.0,0,0.00,,,0.00,519,HR-IXPWINDi_r2_v1.2.,2015-05-30 14:38:00,
2015-05-30 10:43:00,75.7,0.0,30.01,SSW,205,7.0,14.0,0,0.00,,,0.00,731,HR-IXPWINDi_r2_v1.2.,2015-05-30 14:43:00,
2015-05-30 10:48:00,76.2,0.0,30.01,SSW,201,7.0,13.0,0,0.00,,,0.00,654,HR-IXPWINDi_r2_v1.2.,2015-05-30 14:48:00,
2015-05-30 10:53:00,76.2,0.0,30.01,SW,219,11.0,13.0,0,0.00,,,0.00,461,HR-IXPWINDi_r2_v1.2.,2015-05-30 14:53:00,
2015-05-30 10:58:00,76.2,0.0,30.01,WSW,246,10.0,13.0,0,0.00,,,0.00,577,HR-IXPWINDi_r2_v1.2.,2015-05-30 14:58:00,
2015-05-30 11:03:00,76.6,0.0,30.01,WSW,251,10.0,13.0,0,0.00,,,0.00,536,HR-IXPWINDi_r2_v1.2.,2015-05-30 15:03:00,
2015-05-30 11:08:00,76.8,0.0,30.01,SSW,206,7.0,13.0,0,0.00,,,0.00,570,HR-IXPWINDi_r2_v1.2.,2015-05-30 15:08:00,
2015-05-30 11:13:00,77.7,0.0,30.01,SW,223,7.0,13.0,0,0.00,,,0.00,613,HR-IXPWINDi_r2_v1.2.,2015-05-30 15:13:00,
2015-05-30 11:18:00,77.4,0.0,30.01,SSW,198,9.0,13.0,0,0.00,,,0.00,564,HR-IXPWINDi_r2_v1.2.,2015-05-30 15:18:00,
2015-05-30 11:23:00,77.8,0.0,30.01,WSW,241,5.0,12.0,0,0.00,,,0.00,564,HR-IXPWINDi_r2_v1.2.,2015-05-30 15:23:00,
2015-05-30 11:28:00,78.2,0.0,30.01,SSW,196,8.0,12.0,0,0.00,,,0.00,981,HR-IXPWINDi_r2_v1.2.,2015-05-30 15:28:00,
2015-05-30 11:33:00,79.2,0.0,30.00,SW,236,7.0,12.0,0,0.00,,,0.00,1007,HR-IXPWINDi_r2_v1.2.,2015-05-30 15:33:00,
2015-05-30 11:38:00,78.9,17.7,30.00,SSW,209,5.0,12.0,10,0.00,,,0.00,902,HR-IXPWINDi_r2_v1.2.,2015-05-30 15:38:00,
2015-05-30 11:43:00,78.8,-8.2,30.00,West,265,2.0,10.0,3,0.00,,,0.00,918,HR-IXPWINDi_r2_v1.2.,2015-05-30 15:43:00,
2015-05-30 11:48:00,79.4,27.7,30.00,SW,233,8.0,12.0,15,0.00,,,0.00,872,HR-IXPWINDi_r2_v1.2.,2015-05-30 15:48:00,
2015-05-30 11:53:00,80.1,35.4,30.00,WSW,238,7.0,12.0,20,0.00,,,0.00,919,HR-IXPWINDi_r2_v1.2.,2015-05-30 15:53:00,
2015-05-30 11:58:00,80.1,45.8,29.99,WSW,250,8.0,15.0,30,0.00,,,0.00,898,HR-IXPWINDi_r2_v1.2.,2015-05-30 15:58:00,
2015-05-30 12:03:00,79.9,49.8,29.99,SW,214,9.0,15.0,35,0.00,,,0.00,947,HR-IXPWINDi_r2_v1.2.,2015-05-30 16:03:00,
2015-05-30 12:08:00,80.4,53.1,29.99,SSW,211,9.0,16.0,39,0.00,,,0.00,911,HR-IXPWINDi_r2_v1.2.,2015-05-30 16:08:00,
2015-05-30 12:13:00,80.6,51.9,29.99,SW,230,7.0,16.0,37,0.00,,,0.00,998,HR-IXPWINDi_r2_v1.2.,2015-05-30 16:13:00,
2015-05-30 12:18:00,80.5,50.3,29.98,WSW,256,5.0,16.0,35,0.00,,,0.00,983,HR-IXPWINDi_r2_v1.2.,2015-05-30 16:18:00,
2015-05-30 12:23:00,81.0,55.7,29.98,SW,230,14.0,14.0,42,0.00,,,0.00,977,HR-IXPWINDi_r2_v1.2.,2015-05-30 16:23:00,
2015-05-30 12:28:00,80.9,57.5,29.98,SW,225,7.0,16.0,45,0.00,,,0.00,1011,HR-IXPWINDi_r2_v1.2.,2015-05-30 16:28:00,
2015-05-30 12:33:00,80.6,56.0,29.98,SW,223,5.0,16.0,43,0.00,,,0.00,283,HR-IXPWINDi_r2_v1.2.,2015-05-30 16:33:00,
2015-05-30 12:38:00,80.8,57.4,29.98,SW,232,8.0,18.0,45,0.00,,,0.00,960,HR-IXPWINDi_r2_v1.2.,2015-05-30 16:38:00,
2015-05-30 12:43:00,81.1,57.7,29.98,WSW,247,9.0,18.0,45,0.00,,,0.00,904,HR-IXPWINDi_r2_v1.2.,2015-05-30 16:43:00,
2015-05-30 12:48:00,80.9,59.9,29.97,SW,216,9.0,14.0,49,0.00,,,0.00,1014,HR-IXPWINDi_r2_v1.2.,2015-05-30 16:48:00,
2015-05-30 12:53:00,80.9,58.1,29.97,SW,218,9.0,16.0,46,0.00,,,0.00,262,HR-IXPWINDi_r2_v1.2.,2015-05-30 16:53:00,
2015-05-30 12:58:00,81.0,59.4,29.97,SW,215,10.0,16.0,48,0.00,,,0.00,990,HR-IXPWINDi_r2_v1.2.,2015-05-30 16:58:00,
2015-05-30 13:03:00,81.8,60.7,29.97,WSW,246,9.0,13.0,49,0.00,,,0.00,960,HR-IXPWINDi_r2_v1.2.,2015-05-30 17:03:00,
2015-05-30 13:08:00,82.2,62.2,29.97,WSW,247,4.0,15.0,51,0.00,,,0.00,1004,HR-IXPWINDi_r2_v1.2.,2015-05-30 17:08:00,
2015-05-30 13:13:00,82.1,63.2,29.96,WSW,243,6.0,15.0,53,0.00,,,0.00,564,HR-IXPWINDi_r2_v1.2.,2015-05-30 17:13:00,
2015-05-30 13:18:00,82.0,62.0,29.96,SW,235,10.0,12.0,51,0.00,,,0.00,1023,HR-IXPWINDi_r2_v1.2.,2015-05-30 17:18:00,
2015-05-30 13:23:00,82.5,63.6,29.96,SW,233,8.0,13.0,53,0.00,,,0.00,1051,HR-IXPWINDi_r2_v1.2.,2015-05-30 17:23:00,
2015-05-30 13:28:00,82.4,64.0,29.95,SW,214,10.0,14.0,54,0.00,,,0.00,1051,HR-IXPWINDi_r2_v1.2.,2015-05-30 17:28:00,
2015-05-30 13:33:00,81.6,63.3,29.95,SW,235,9.0,16.0,54,0.00,,,0.00,234,HR-IXPWINDi_r2_v1.2.,2015-05-30 17:33:00,
2015-05-30 13:38:00,81.3,62.5,29.95,SW,219,10.0,21.0,53,0.00,,,0.00,285,HR-IXPWINDi_r2_v1.2.,2015-05-30 17:38:00,
2015-05-30 13:43:00,81.5,63.2,29.95,SW,218,10.0,21.0,54,0.00,,,0.00,299,HR-IXPWINDi_r2_v1.2.,2015-05-30 17:43:00,
2015-05-30 13:48:00,81.9,64.1,29.95,SSW,211,8.0,15.0,55,0.00,,,0.00,279,HR-IXPWINDi_r2_v1.2.,2015-05-30 17:48:00,
2015-05-30 13:53:00,81.6,63.3,29.95,SW,236,9.0,16.0,54,0.00,,,0.00,1056,HR-IXPWINDi_r2_v1.2.,2015-05-30 17:53:00,
2015-05-30 13:58:00,82.8,65.5,29.94,SW,225,10.0,16.0,56,0.00,,,0.00,1018,HR-IXPWINDi_r2_v1.2.,2015-05-30 17:58:00,
2015-05-30 14:03:00,83.0,65.1,29.94,SSW,194,9.0,17.0,55,0.00,,,0.00,1051,HR-IXPWINDi_r2_v1.2.,2015-05-30 18:03:00,
2015-05-30 14:08:00,83.3,65.9,29.94,South,182,13.0,17.0,56,0.00,,,0.00,246,HR-IXPWINDi_r2_v1.2.,2015-05-30 18:08:00,
2015-05-30 14:13:00,83.4,65.5,29.94,SW,221,9.0,17.0,55,0.00,,,0.00,260,HR-IXPWINDi_r2_v1.2.,2015-05-30 18:13:00,
2015-05-30 14:18:00,83.5,65.1,29.93,SSW,200,17.0,18.0,54,0.00,,,0.00,1088,HR-IXPWINDi_r2_v1.2.,2015-05-30 18:18:00,
2015-05-30 14:23:00,84.1,64.5,29.93,South,186,17.0,21.0,52,0.00,,,0.00,1004,HR-IXPWINDi_r2_v1.2.,2015-05-30 18:23:00,
2015-05-30 14:28:00,84.2,65.2,29.93,SW,224,13.0,21.0,53,0.00,,,0.00,997,HR-IXPWINDi_r2_v1.2.,2015-05-30 18:28:00,
2015-05-30 14:33:00,84.4,65.4,29.92,SSW,197,11.0,21.0,53,0.00,,,0.00,1041,HR-IXPWINDi_r2_v1.2.,2015-05-30 18:33:00,
2015-05-30 14:38:00,84.1,65.1,29.92,SW,218,16.0,18.0,53,0.00,,,0.00,1041,HR-IXPWINDi_r2_v1.2.,2015-05-30 18:38:00,
2015-05-30 14:43:00,84.4,66.4,29.92,SW,230,10.0,18.0,55,0.00,,,0.00,1028,HR-IXPWINDi_r2_v1.2.,2015-05-30 18:43:00,
2015-05-30 14:48:00,83.9,65.4,29.91,SW,216,7.0,18.0,54,0.00,,,0.00,236,HR-IXPWINDi_r2_v1.2.,2015-05-30 18:48:00,
2015-05-30 14:53:00,83.2,65.3,29.91,South,191,6.0,16.0,55,0.00,,,0.00,415,HR-IXPWINDi_r2_v1.2.,2015-05-30 18:53:00,
2015-05-30 14:58:00,83.7,65.2,29.91,SSW,202,11.0,18.0,54,0.00,,,0.00,246,HR-IXPWINDi_r2_v1.2.,2015-05-30 18:58:00,
2015-05-30 15:03:00,84.3,65.8,29.90,SW,219,13.0,18.0,54,0.00,,,0.00,636,HR-IXPWINDi_r2_v1.2.,2015-05-30 19:03:00,
2015-05-30 15:08:00,85.4,65.7,29.90,SSW,213,9.0,19.0,52,0.00,,,0.00,981,HR-IXPWINDi_r2_v1.2.,2015-05-30 19:08:00,
2015-05-30 15:13:00,85.2,65.5,29.90,SSW,198,17.0,19.0,52,0.00,,,0.00,995,HR-IXPWINDi_r2_v1.2.,2015-05-30 19:13:00,
2015-05-30 15:18:00,85.0,65.4,29.90,SW,225,17.0,19.0,52,0.00,,,0.00,376,HR-IXPWINDi_r2_v1.2.,2015-05-30 19:18:00,
2015-05-30 15:23:00,84.5,64.9,29.90,SW,228,13.0,19.0,52,0.00,,,0.00,241,HR-IXPWINDi_r2_v1.2.,2015-05-30 19:23:00,
2015-05-30 15:28:00,84.0,65.0,29.90,SW,227,12.0,17.0,53,0.00,,,0.00,297,HR-IXPWINDi_r2_v1.2.,2015-05-30 19:28:00,
2015-05-30 15:33:00,83.3,64.9,29.90,SW,232,12.0,16.0,54,0.00,,,0.00,206,HR-IXPWINDi_r2_v1.2.,2015-05-30 19:33:00,
2015-05-30 15:38:00,82.7,64.8,29.90,SSW,208,10.0,19.0,55,0.00,,,0.00,178,HR-IXPWINDi_r2_v1.2.,2015-05-30 19:38:00,
2015-05-30 15:43:00,80.7,63.0,29.90,WSW,241,9.0,23.0,55,0.00,,,0.00,297,HR-IXPWINDi_r2_v1.2.,2015-05-30 19:43:00,
2015-05-30 15:48:00,78.6,56.0,29.90,WSW,248,8.0,23.0,46,0.00,,,0.00,570,HR-IXPWINDi_r2_v1.2.,2015-05-30 19:48:00,
2015-05-30 15:53:00,79.1,51.3,29.90,SW,219,10.0,11.0,38,0.00,,,0.00,353,HR-IXPWINDi_r2_v1.2.,2015-05-30 19:53:00,
2015-05-30 15:58:00,79.8,59.5,29.92,SSW,200,17.0,22.0,50,0.00,,,0.00,353,HR-IXPWINDi_r2_v1.2.,2015-05-30 19:58:00,
2015-05-30 16:03:00,75.6,50.2,29.92,South,169,11.0,29.0,41,0.00,,,0.00,216,HR-IXPWINDi_r2_v1.2.,2015-05-30 20:03:00,
2015-05-30 16:08:00,73.7,-32.3,29.91,SSE,168,10.0,29.0,1,0.00,,,0.00,366,HR-IXPWINDi_r2_v1.2.,2015-05-30 20:08:00,
2015-05-30 16:13:00,74.4,0.0,29.90,SSW,193,7.0,17.0,0,0.00,,,0.00,1014,HR-IXPWINDi_r2_v1.2.,2015-05-30 20:13:00,
2015-05-30 16:18:00,76.5,47.5,29.90,SSW,205,10.0,14.0,36,0.00,,,0.00,970,HR-IXPWINDi_r2_v1.2.,2015-05-30 20:18:00,
2015-05-30 16:23:00,77.9,57.2,29.90,SSW,194,7.0,14.0,49,0.00,,,0.00,842,HR-IXPWINDi_r2_v1.2.,2015-05-30 20:23:00,
2015-05-30 16:28:00,79.1,61.5,29.90,SW,227,10.0,14.0,55,0.00,,,0.00,831,HR-IXPWINDi_r2_v1.2.,2015-05-30 20:28:00,
2015-05-30 16:33:00,80.0,61.3,29.89,SSW,201,10.0,13.0,53,0.00,,,0.00,793,HR-IXPWINDi_r2_v1.2.,2015-05-30 20:33:00,
2015-05-30 16:38:00,80.9,63.2,29.89,SSW,200,10.0,15.0,55,0.00,,,0.00,824,HR-IXPWINDi_r2_v1.2.,2015-05-30 20:38:00,
2015-05-30 16:43:00,81.0,62.7,29.89,SSW,208,10.0,15.0,54,0.00,,,0.00,824,HR-IXPWINDi_r2_v1.2.,2015-05-30 20:43:00,
2015-05-30 16:48:00,81.4,63.6,29.89,SSW,205,9.0,16.0,55,0.00,,,0.00,752,HR-IXPWINDi_r2_v1.2.,2015-05-30 20:48:00,
2015-05-30 16:53:00,81.9,65.1,29.89,South,187,11.0,16.0,57,0.00,,,0.00,499,HR-IXPWINDi_r2_v1.2.,2015-05-30 20:53:00,
2015-05-30 16:58:00,81.9,64.6,29.89,SSW,209,12.0,17.0,56,0.00,,,0.00,656,HR-IXPWINDi_r2_v1.2.,2015-05-30 20:58:00,
2015-05-30 17:03:00,81.9,64.6,29.89,SSW,198,12.0,17.0,56,0.00,,,0.00,543,HR-IXPWINDi_r2_v1.2.,2015-05-30 21:03:00,
2015-05-30 17:08:00,82.3,65.5,29.88,SSW,194,9.0,16.0,57,0.00,,,0.00,751,HR-IXPWINDi_r2_v1.2.,2015-05-30 21:08:00,
2015-05-30 17:13:00,82.4,65.1,29.88,SSW,200,12.0,16.0,56,0.00,,,0.00,666,HR-IXPWINDi_r2_v1.2.,2015-05-30 21:13:00,
2015-05-30 17:18:00,81.8,65.0,29.89,SW,222,10.0,16.0,57,0.00,,,0.00,179,HR-IXPWINDi_r2_v1.2.,2015-05-30 21:18:00,
2015-05-30 17:23:00,81.9,65.1,29.88,SSW,196,11.0,15.0,57,0.00,,,0.00,244,HR-IXPWINDi_r2_v1.2.,2015-05-30 21:23:00,
2015-05-30 17:28:00,82.5,65.2,29.88,South,188,14.0,15.0,56,0.00,,,0.00,575,HR-IXPWINDi_r2_v1.2.,2015-05-30 21:28:00,
2015-05-30 17:33:00,82.8,66.0,29.88,South,188,14.0,17.0,57,0.00,,,0.00,561,HR-IXPWINDi_r2_v1.2.,2015-05-30 21:33:00,
2015-05-30 17:38:00,83.1,66.2,29.88,SSW,206,11.0,17.0,57,0.00,,,0.00,561,HR-IXPWINDi_r2_v1.2.,2015-05-30 21:38:00,
2015-05-30 17:43:00,82.5,65.7,29.87,South,182,15.0,17.0,57,0.00,,,0.00,162,HR-IXPWINDi_r2_v1.2.,2015-05-30 21:43:00,
2015-05-30 17:48:00,82.9,66.1,29.87,SSW,193,12.0,17.0,57,0.00,,,0.00,519,HR-IXPWINDi_r2_v1.2.,2015-05-30 21:48:00,
2015-05-30 17:53:00,83.3,65.9,29.86,South,169,13.0,21.0,56,0.00,,,0.00,570,HR-IXPWINDi_r2_v1.2.,2015-05-30 21:53:00,
2015-05-30 17:58:00,83.2,65.3,29.86,South,188,17.0,21.0,55,0.00,,,0.00,54,HR-IXPWINDi_r2_v1.2.,2015-05-30 21:58:00,
2015-05-30 18:03:00,82.0,64.7,29.86,South,190,15.0,20.0,56,0.00,,,0.00,44,HR-IXPWINDi_r2_v1.2.,2015-05-30 22:03:00,
2015-05-30 18:08:00,81.3,64.6,29.87,SSW,194,17.0,20.0,57,0.00,,,0.00,39,HR-IXPWINDi_r2_v1.2.,2015-05-30 22:08:00,
2015-05-30 18:13:00,81.1,64.9,29.87,SSW,213,11.0,18.0,58,0.00,,,0.00,30,HR-IXPWINDi_r2_v1.2.,2015-05-30 22:13:00,
2015-05-30 18:18:00,80.9,64.7,29.88,SSW,201,7.0,18.0,58,0.00,,,0.00,32,HR-IXPWINDi_r2_v1.2.,2015-05-30 22:18:00,
2015-05-30 18:23:00,80.7,64.5,29.87,South,185,12.0,15.0,58,0.00,,,0.00,35,HR-IXPWINDi_r2_v1.2.,2015-05-30 22:23:00,
2015-05-30 18:28:00,80.4,63.7,29.87,South,186,11.0,15.0,57,0.00,,,0.00,33,HR-IXPWINDi_r2_v1.2.,2015-05-30 22:28:00,
2015-05-30 18:33:00,80.2,63.5,29.87,South,185,12.0,15.0,57,0.00,,,0.00,47,HR-IXPWINDi_r2_v1.2.,2015-05-30 22:33:00,